TimeEST,TemperatureF,Dew PointF,Humidity,Sea Level PressureIn,VisibilityMPH,Wind Direction,Wind SpeedMPH,Gust SpeedMPH,PrecipitationIn,Events,Conditions,WindDirDegrees,DateUTC
12:54 AM,21.0,19.0,92,29.96,8.0,South,3.5,-,N/A,,Clear,180,2013-02-13 05:54:00
1:54 AM,19.9,18.0,92,29.94,8.0,North,5.8,-,N/A,,Clear,360,2013-02-13 06:54:00
2:54 AM,19.9,18.0,92,29.92,9.0,North,3.5,-,N/A,,Clear,360,2013-02-13 07:54:00
3:54 AM,19.0,17.1,92,29.91,7.0,North,5.8,-,N/A,,Clear,360,2013-02-13 08:54:00
4:54 AM,18.0,16.0,92,29.91,6.0,North,5.8,-,N/A,,Clear,10,2013-02-13 09:54:00
5:54 AM,18.0,16.0,92,29.90,8.0,NNE,4.6,-,N/A,,Clear,30,2013-02-13 10:54:00
6:54 AM,18.0,16.0,92,29.89,8.0,North,3.5,-,N/A,,Clear,360,2013-02-13 11:54:00
7:54 AM,19.9,18.0,92,29.87,6.0,NE,3.5,-,N/A,,Clear,40,2013-02-13 12:54:00
8:54 AM,21.9,19.9,92,29.86,6.0,NNE,4.6,-,N/A,,Clear,20,2013-02-13 13:54:00
9:54 AM,25.0,21.9,88,29.83,8.0,NE,5.8,-,N/A,,Clear,40,2013-02-13 14:54:00
10:54 AM,28.9,24.1,82,29.82,10.0,ENE,4.6,-,N/A,,Clear,70,2013-02-13 15:54:00
11:54 AM,35.1,25.0,67,29.78,10.0,NNE,3.5,-,N/A,,Mostly Cloudy,20,2013-02-13 16:54:00
12:54 PM,37.0,25.0,62,29.77,10.0,Calm,Calm,-,N/A,,Clear,0,2013-02-13 17:54:00
1:54 PM,37.9,26.1,62,29.73,10.0,North,4.6,-,N/A,,Clear,360,2013-02-13 18:54:00
2:54 PM,39.0,24.1,55,29.71,10.0,ESE,4.6,-,N/A,,Overcast,110,2013-02-13 19:54:00
3:54 PM,37.9,24.1,57,29.70,10.0,Calm,Calm,-,N/A,,Overcast,0,2013-02-13 20:54:00
4:54 PM,37.0,24.1,59,29.70,10.0,SSE,3.5,-,N/A,,Overcast,150,2013-02-13 21:54:00
5:21 PM,33.8,26.6,75,29.66,2.5,SSW,8.1,17.3,0.00,Snow,Light Snow,200,2013-02-13 22:21:00
5:30 PM,33.8,28.4,81,29.66,1.0,SSW,9.2,-,0.00,Snow,Light Snow,200,2013-02-13 22:30:00
5:54 PM,32.0,30.0,92,29.73,1.0,SSW,3.5,-,0.01,Snow,Light Snow,210,2013-02-13 22:54:00
5:57 PM,32.0,30.2,93,29.67,1.0,SW,3.5,-,0.00,Snow,Light Snow,230,2013-02-13 22:57:00
6:14 PM,32.0,30.2,93,29.67,0.8,Calm,Calm,-,0.01,Snow,Light Snow,0,2013-02-13 23:14:00
6:39 PM,32.0,30.2,93,29.67,1.0,Calm,Calm,-,0.04,Snow,Light Snow,0,2013-02-13 23:39:00
6:54 PM,32.0,30.9,96,29.74,1.2,Calm,Calm,-,0.04,Snow,Light Snow,0,2013-02-13 23:54:00
7:21 PM,32.0,30.2,93,29.68,1.0,Calm,Calm,-,0.01,Snow,Light Snow,0,2013-02-14 00:21:00
7:52 PM,32.0,30.2,93,29.69,0.5,Calm,Calm,-,0.02,Fog-Snow,Snow,0,2013-02-14 00:52:00
7:54 PM,32.0,30.9,96,29.74,0.5,Calm,Calm,-,0.03,Fog-Snow,Snow,0,2013-02-14 00:54:00
8:29 PM,32.0,30.2,93,29.69,0.5,Calm,Calm,-,0.00,Fog-Snow,Light Snow,0,2013-02-14 01:29:00
8:44 PM,30.2,30.2,100,29.69,0.5,Calm,Calm,-,0.00,Fog,Light Freezing Fog,0,2013-02-14 01:44:00
8:54 PM,30.9,30.0,96,29.75,0.2,Calm,Calm,-,0.00,Fog,Light Freezing Fog,0,2013-02-14 01:54:00
9:54 PM,30.9,30.0,96,29.76,0.2,WSW,3.5,-,N/A,Fog,Light Freezing Fog,240,2013-02-14 02:54:00
10:54 PM,28.0,26.1,92,29.77,0.2,SW,3.5,-,N/A,Fog,Light Freezing Fog,230,2013-02-14 03:54:00
11:02 PM,28.4,26.6,93,29.72,0.8,SW,3.5,-,N/A,,Mist,230,2013-02-14 04:02:00
11:11 PM,28.4,26.6,93,29.73,0.5,SW,4.6,-,N/A,Fog,Light Freezing Fog,230,2013-02-14 04:11:00
11:16 PM,28.4,26.6,93,29.73,1.2,WSW,4.6,-,N/A,,Partly Cloudy,240,2013-02-14 04:16:00
11:26 PM,28.4,26.6,93,29.73,3.0,SW,4.6,-,N/A,,Partly Cloudy,230,2013-02-14 04:26:00
11:54 PM,27.0,26.1,96,29.78,5.0,West,3.5,-,N/A,,Clear,270,2013-02-14 04:54:00